Weather History for Sierra Vista, AZ

Change the Weather History Date:

Saturday, November 6, 2010

  Actual Average Record
Temperature  
Mean Temperature 62 °F -  
Max Temperature 78 °F 68 °F 84 °F (1999)
Min Temperature 46 °F 46 °F 33 °F (2000)
Degree Days  
Heating Degree Days 3    
Growing Degree Days 12 (Base 50)    
Moisture  
Dew Point 28 °F    
Average Humidity 27    
Maximum Humidity 43    
Minimum Humidity 20    
Precipitation  
Precipitation 0.00 in - - ()
Sea Level Pressure  
Sea Level Pressure 30.08 in    
Wind  
Wind Speed 3 mph (WSW)    
Max Wind Speed 12 mph    
Max Gust Speed -    
Visibility 10 miles    
Events      
Averages and records for this station are not official NWS values.
T = Trace of Precipitation, MM = Missing Value Source: NWS Daily Summary

Daily Weather History Graph

Daily Weather History Graph

Search for Another Location

Airport:

Trip Planner

Search our weather history database for the weather conditions in past years. The results will help you decide how hot, cold, wet, or windy it might be!

Date:

Astronomy

Nov. 06, 2010 Rise Set
Actual Time 6:41 AM MST 5:27 PM MST
Civil Twilight 6:16 AM MST 5:53 PM MST
Nautical Twilight 5:47 AM MST 6:22 PM MST
Astronomical Twilight 5:18 AM MST 6:50 PM MST
Moon 7:15 AM MST (11/6) 5:46 PM MST (11/6)
Length of Visible Light 11h 37m
Length of Day
10h 46m
New Moon, 0% of the Moon is Illuminated
Nov 6
New Moon
Nov 13
First Quarter
Nov 21
Full
Nov 28
Last Quarter
Dec 5
New

Hourly Weather History & Observations

Time (MST) Temp. Windchill Dew Point Humidity Pressure Visibility Wind Dir Wind Speed Gust Speed Precip Events Conditions
12:56 AM 50.0 °F - 23.0 °F 35% 30.06 in 10.0 mi Calm Calm - N/A   Clear
1:56 AM 53.1 °F - 24.1 °F 32% 30.05 in 10.0 mi WSW 5.8 mph - N/A   Clear
2:56 AM 50.0 °F - 24.1 °F 36% 30.06 in 10.0 mi SW 3.5 mph - N/A   Clear
3:56 AM 48.0 °F - 24.1 °F 39% 30.07 in 10.0 mi Calm Calm - N/A   Clear
4:56 AM 50.0 °F - 24.1 °F 36% 30.08 in 10.0 mi West 3.5 mph - N/A   Clear
5:56 AM 48.9 °F - 24.1 °F 38% 30.12 in 10.0 mi Calm Calm - N/A   Clear
6:55 AM 46.4 °F 45.2 °F 24.8 °F 43% 30.14 in 70.0 mi Variable 3.5 mph - N/A   Scattered Clouds
7:55 AM 57.2 °F - 26.6 °F 31% 30.13 in 70.0 mi Calm Calm - N/A   Partly Cloudy
8:55 AM 64.4 °F - 26.6 °F 24% 30.13 in 70.0 mi Variable 1.2 mph - N/A   Partly Cloudy
9:55 AM 68.0 °F - 28.4 °F 23% 30.14 in 70.0 mi Variable 2.3 mph - N/A   Partly Cloudy
10:55 AM 73.4 °F - 30.2 °F 20% 30.11 in 70.0 mi Variable 3.5 mph - N/A   Partly Cloudy
11:55 AM 73.4 °F - 32.0 °F 22% 30.07 in 70.0 mi Variable 3.5 mph - N/A   Partly Cloudy
12:55 PM 77.0 °F - 33.8 °F 21% 30.05 in 70.0 mi Variable 1.2 mph - N/A   Scattered Clouds
1:55 PM 77.0 °F - 35.6 °F 22% 30.02 in 70.0 mi Variable 3.5 mph - N/A   Scattered Clouds
2:55 PM 78.8 °F - 35.6 °F 21% 30.02 in 70.0 mi Variable 5.8 mph - N/A   Scattered Clouds
3:56 PM 77.0 °F - 35.1 °F 22% 30.02 in 10.0 mi East 3.5 mph - N/A   Clear
4:56 PM 73.9 °F - 30.9 °F 21% 30.04 in 10.0 mi Calm Calm - N/A   Clear
5:56 PM 66.9 °F - 27.0 °F 22% 30.06 in 10.0 mi WSW 9.2 mph - N/A   Clear
6:56 PM 63.0 °F - 25.0 °F 24% 30.09 in 10.0 mi West 9.2 mph - N/A   Clear
7:56 PM 61.0 °F - 26.1 °F 26% 30.07 in 10.0 mi West 10.4 mph - N/A   Clear
8:56 PM 61.0 °F - 26.1 °F 26% 30.08 in 10.0 mi WSW 5.8 mph - N/A   Clear
9:56 PM 61.0 °F - 25.0 °F 25% 30.07 in 10.0 mi West 11.5 mph - N/A   Clear
10:56 PM 61.0 °F - 25.0 °F 25% 30.07 in 10.0 mi WSW 10.4 mph - N/A   Clear
11:56 PM 59.0 °F - 24.1 °F 26% 30.07 in 10.0 mi West 10.4 mph - N/A   Clear